Terminal Aerodrome Forecast
Issued by NWS Atlanta, GA

Current Version | Previous Version | Text Only | Print | Product List | Glossary On
Versions: 1 2 3 4 5 6 7 8 9 10 11 12 13 14 15 16 17 18 19 20 21 22 23 24 25 26 27 28 29 30 31 32 33 34 35 36 37 38 39
000
FTUS42 KFFC 292329
TAFATL
TAF
KATL 292329Z 3000/3106 22006KT P6SM BKN100
     FM300100 22006KT P6SM BKN050
     FM300300 23008KT P6SM VCSH BKN025 OVC080
     FM300500 32015G25KT P6SM OVC025
     FM300700 32013G22KT P6SM OVC020
     FM301200 32014G24KT P6SM SCT040
     FM301500 32014G24KT P6SM SCT150
     FM310000 33009KT P6SM SKC=

USA.gov is the U.S. government's official web portal to all federal, state and local government web resources and services.